Torna al catalogo

SL-8 DEB *

AttivoLEO
NORAD 15528·DEBRIS·🇷🇺 Russia

Lanciato Nov 11, 1982 da Plesetsk Cosmodrome

Loading…

Prossimi Passaggi (prossime 24 ore)

TLE

AggiornatoSource: Space-Track

Epoca: Sep 14, 2026, 11:21 UTC

1 15528U 82109D   26257.47345325  .00001379  00000-0  26044-3 0  9995
2 15528  74.0154 261.9698 0011103 320.9265 191.2264 14.65430697230182

Traccia SL-8 DEB * in tempo reale con AllMySat

Download on the App Store